Location: Brunnen
(48.6541°N, 10.9920°E)
Time: 04:47:35
(UTC+00:00)

Cosmos 2221 Rocket - Pass Details

Date: 01 June 2020
Orbit: 620 x 649 km, 82.5° (Epoch: 10 July)

Event Time Altitude Azimuth Distance (km) Brightness Sun altitude
Rises 20:11:09 0° 199° (SSW) 2,935 6.7 -8.2°
Reaches altitude 10° 20:13:25 10° 204° (SSW) 2,034 6.0 -8.5°
Maximum altitude 20:17:52 57° 283° (WNW) 766 4.4 -9.0°
Drops below altitude 10° 20:22:23 10° 2° (N) 2,062 7.0 -9.5°
Sets 20:24:42 0° 7° (N) 2,979 7.8 -9.7°
